Flag for Canada Weather past 2 weeks in Halifax, Nova Scotia, Canada

Now
48 °F

Drizzle. Mostly cloudy.


Feels Like: 45 °F
Forecast: N/A
Wind: 7 mph from Northwest

Location: Halifax International Airport

Current Time: Oct 25, 2014 at 7:24:05 PM

Latest Report: Oct 25, 2014 at 7:00 PM


Visibility: 10 mi

Pressure: 29.50 "Hg

Humidity: 94%

Dew point: 46 °F

Location of HalifaxLocation

Historic Weather in Halifax — Graph

°F

Halifax temperature yesterday

Maximum temperature yesterday: 59 °F (at 2:00 PM)
Minimum temperature yesterday: 52 °F (at 12:00 AM)
Average temperature yesterday: 55 °F

Past Weeks' High & Low Weather Summary

 TemperatureHumidityPressure
High77 °F (Oct 15, 3:00 PM)100% (Oct 12, 3:50 AM)30.32 "Hg (Oct 12, 3:50 AM)
Low37 °F (Oct 20, 6:52 AM)42% (Oct 13, 2:00 PM)29.40 "Hg (Oct 25, 2:00 AM)
Average53 °F87%29.94 "Hg
* Reported Oct 10 6:00 PM — Oct 25 6:00 PM, Halifax, Weather by CustomWeather, © 2014

Note: Actual official high and low records may vary slightly from our data, if they occured in-between our weather recording intervals... More about our weather records

Advertising

Halifax weather history for previous 24 hours

 ConditionsComfort  
Time TempWeatherWind HumidityBarometerVisibility
6:00 PM
Oct 25
48 °FDrizzle. Broken clouds.9 mph94%29.49 "Hg10 mi
5:00 PM50 °FDrizzle. Mostly cloudy.12 mph88%29.48 "Hg10 mi
4:00 PM50 °FMostly cloudy.14 mph88%29.48 "Hg15 mi
3:00 PM50 °FPartly sunny.17 mph88%29.46 "Hg15 mi
2:00 PM50 °FFog.15 mph94%29.46 "Hg6 mi
1:00 PM50 °FFog.17 mph94%29.47 "Hg3 mi
12:00 PM50 °FFog.13 mph94%29.48 "Hg3 mi
11:00 AM48 °FDrizzle. Fog.16 mph100%29.47 "Hg1 mi
10:00 AM50 °FFog.12 mph94%29.46 "Hg5 mi
9:00 AM48 °FLow clouds.17 mph100%29.46 "Hg15 mi
8:00 AM48 °FLow clouds.17 mph100%29.44 "Hg15 mi
7:00 AM48 °FLow clouds.15 mph100%29.43 "Hg10 mi
6:00 AM48 °FMostly cloudy.16 mph100%29.42 "Hg8 mi
5:00 AM50 °FMostly cloudy.15 mph94%29.42 "Hg15 mi
4:00 AM50 °FLow clouds.12 mph100%29.41 "Hg10 mi
3:00 AM52 °FDrizzle. Fog.13 mph100%29.41 "Hg1 mi
2:00 AM52 °FDrizzle. Fog.13 mph100%29.40 "Hg3 mi
1:53 AM52 °FDrizzle. Fog.14 mph100%29.41 "Hg3 mi
1:00 AM52 °FDrizzle. Fog.13 mph100%29.41 "Hg1 mi
12:52 AM54 °FFog.13 mph94%29.41 "Hg1 mi
12:00 AM54 °FFog.10 mph100%29.41 "Hg0 mi
11:00 PM
Oct 24
54 °FFog.9 mph100%29.41 "Hg0 mi
10:00 PM54 °FFog.13 mph100%29.42 "Hg0 mi
9:00 PM55 °FCool.12 mph94%29.43 "Hg1 mi
8:00 PM55 °FFog.5 mph100%29.43 "Hg3 mi
7:00 PM57 °FSprinkles. Fog.7 mph100%29.43 "Hg2 mi
Weather by CustomWeather, © 2014

See weather overviewHow to use our weather pages